Wind_Speed
42 42 42 41 39 40 41 43 44 44 45 44 45 46 46 48 45 42 41 41 41 40 39 38 37 37 36 36 36 36 36 35 35 35 36 36 36 37 38 39 40 41 42 42
40 39 38 39 39 41 43 43 43 43 44 43 44 45 46 47 45 42 41 40 40 40 38 37 37 37 37 36 36 37 37 37 37 37 38 39 39 39 40 41 42 43 45 46
35 36 37 38 39 40 41 42 42 44 42 40 42 45 45 46 45 43 40 40 40 39 38 37 36 36 36 36 36 37 37 38 39 39 39 40 41 42 42 43 44 45 47 48
32 33 34 35 36 38 39 41 41 41 39 38 39 42 44 44 44 43 41 40 39 37 37 36 35 35 35 36 36 37 38 39 39 40 41 42 43 43 44 45 46 46 48 49
31 32 32 33 34 35 38 39 40 39 37 39 39 40 41 42 41 41 40 40 38 37 36 35 35 36 36 36 37 38 39 39 40 41 42 43 43 44 44 45 46 47 48 49
28 30 31 32 33 35 37 38 38 38 38 38 37 37 38 38 37 37 38 38 38 37 37 37 36 37 37 38 39 39 39 40 40 41 42 42 43 44 44 45 46 47 48 49
27 28 30 31 32 33 35 38 38 38 39 38 36 36 37 36 35 35 35 36 37 37 37 37 37 37 38 38 38 39 39 40 40 40 41 41 42 43 44 45 46 47 48 49
25 27 28 29 31 31 33 35 36 37 37 37 36 36 37 35 33 33 34 34 35 35 36 36 36 37 37 37 37 38 38 38 38 39 40 41 42 42 43 43 44 45 46 48
22 23 24 27 29 30 31 33 35 35 35 36 37 36 36 34 32 33 33 33 33 34 34 34 35 35 36 36 36 36 36 37 37 38 39 40 40 41 41 42 42 43 45 47
19 20 22 23 25 28 30 30 31 33 33 34 35 35 36 34 33 33 33 33 33 33 33 34 34 34 34 34 34 35 35 36 36 37 37 38 38 39 39 40 41 42 44 46
18 19 20 21 22 23 25 28 30 32 34 33 33 35 35 33 33 33 33 33 33 33 33 33 33 33 32 33 33 33 33 33 34 35 35 36 37 37 38 39 40 41 44 46
16 17 18 19 19 20 22 24 27 29 31 31 32 34 31 30 31 31 32 32 32 32 32 32 31 31 31 31 31 31 31 32 32 33 34 34 35 35 36 37 38 40 43 45
15 16 18 19 20 20 21 21 24 26 27 28 30 32 27 26 28 29 30 30 30 30 30 29 28 28 28 28 28 29 30 30 31 32 32 32 32 33 34 34 36 39 40 41
16 16 17 18 18 19 19 20 21 23 25 26 28 28 25 24 25 26 27 28 28 27 26 26 25 25 25 26 27 28 29 29 29 29 30 30 31 31 32 32 34 36 37 38
16 16 17 18 19 20 21 21 21 21 21 24 26 27 24 24 24 24 25 26 25 24 24 23 23 23 24 24 25 26 27 27 27 27 28 28 29 30 31 32 33 34 35 35
15 16 17 17 18 19 20 21 21 21 21 22 24 24 23 23 23 24 24 24 23 22 22 21 21 21 22 22 22 23 24 25 25 26 27 28 28 29 30 31 31 31 32 32
15 15 16 16 17 18 18 18 19 19 20 22 22 22 22 21 22 23 22 22 22 21 20 20 19 19 19 20 20 21 22 23 24 25 26 26 27 28 29 29 29 29 29 30
14 15 15 16 16 16 15 16 17 18 20 20 20 21 21 20 21 22 22 21 20 19 19 17 17 17 17 18 19 19 20 21 22 23 24 25 26 26 26 26 26 26 26 26
15 15 15 15 15 14 14 15 16 16 17 18 19 20 20 20 21 21 21 20 19 18 16 16 16 16 16 17 17 18 19 20 21 21 22 22 23 23 23 23 24 24 24 24
15 15 15 15 15 15 13 14 15 16 16 17 18 18 19 20 20 20 20 19 17 16 15 15 15 15 15 16 16 17 18 18 19 19 19 20 20 21 21 21 22 22 22 22
17 17 16 16 16 15 14 15 16 16 15 16 17 18 18 19 19 20 19 18 17 16 15 15 15 15 15 15 16 16 17 17 17 18 18 19 19 19 20 20 21 21 21 20
19 19 19 18 18 16 17 17 17 16 16 17 17 18 18 19 19 19 19 18 17 16 16 15 15 15 15 15 16 16 17 17 17 17 18 18 19 19 19 20 20 20 20 20
21 21 21 21 20 19 19 19 18 18 18 18 18 19 19 19 20 20 20 19 19 18 17 17 17 16 16 16 16 17 17 18 18 18 18 19 19 19 20 20 21 21 21 21
24 24 23 22 21 21 20 20 20 20 20 20 20 20 21 21 21 22 21 21 20 20 19 18 18 18 18 18 18 18 18 19 19 19 19 20 20 20 21 21 21 22 21 21
27 27 26 25 24 23 22 21 21 21 21 21 21 22 22 22 23 23 23 22 22 21 21 20 20 20 19 19 19 19 20 20 20 20 21 21 22 22 22 22 22 23 23 23
29 28 28 27 27 26 24 24 23 22 22 22 22 22 23 23 24 24 24 24 24 23 22 22 22 21 21 21 21 21 21 21 22 22 22 23 23 23 23 24 24 24 24 24
Wind_Direction
203 205 209 212 214 216 219 219 222 224 225 225 224 223 223 224 223 226 230 233 235 236 236 237 240 244 247 250 253 256 258 260 262 266 269 272 275 276 278 281 282 283 284 283
201 204 206 209 211 213 217 218 220 223 225 225 225 224 223 225 224 226 231 234 237 239 240 241 243 245 248 251 253 256 258 260 263 266 269 273 275 277 279 280 281 282 282 281
201 204 206 209 211 214 218 220 221 224 225 226 227 226 225 226 225 227 231 235 238 240 242 243 246 248 250 252 254 256 258 260 263 266 269 272 275 277 279 279 279 279 279 280
197 201 205 209 212 215 218 220 223 225 226 227 228 228 227 227 227 228 231 235 238 241 245 246 248 251 253 255 257 259 261 263 265 268 271 273 275 277 278 278 279 278 278 278
196 200 204 207 212 215 218 220 223 224 225 227 227 229 228 228 228 230 233 236 239 242 246 249 252 255 257 259 261 263 264 266 268 270 272 273 275 276 277 277 278 278 278 278
196 199 203 207 213 217 218 219 222 224 226 227 227 229 231 229 228 231 234 237 240 244 248 252 254 257 260 261 263 265 266 268 269 270 272 273 274 275 276 277 278 278 279 279
196 200 205 209 214 218 219 220 222 224 226 226 226 229 231 230 228 231 235 238 242 246 249 253 256 258 260 261 263 264 266 267 269 270 271 272 273 275 276 277 278 280 280 281
197 202 206 210 215 220 222 222 223 226 228 227 227 229 232 232 230 232 236 239 243 246 250 253 255 257 259 260 262 263 265 266 268 269 270 272 274 275 277 279 281 282 283 284
197 204 210 214 217 220 221 221 223 226 228 230 229 230 232 234 234 235 237 241 244 247 249 251 253 255 257 258 260 262 263 265 267 269 272 274 276 278 280 282 284 286 287 288
200 205 208 213 217 220 222 222 222 223 227 232 235 235 235 235 238 239 240 241 243 245 246 248 250 253 255 257 259 262 264 267 269 272 274 277 280 282 284 286 288 290 291 292
203 206 209 213 214 219 221 222 223 225 228 231 237 239 235 236 238 239 239 240 241 243 244 246 249 251 254 257 260 263 266 269 272 275 278 281 283 285 287 289 291 293 295 296
210 212 214 217 218 220 221 221 222 225 228 230 235 241 239 237 237 238 238 238 239 241 243 246 248 251 254 257 261 264 268 272 275 279 281 283 285 287 290 291 293 296 298 300
219 220 221 221 222 223 224 224 226 228 229 231 234 239 238 236 235 236 237 237 238 240 243 246 249 252 256 260 264 269 272 275 279 281 283 284 286 289 292 293 296 300 302 304
224 225 226 229 227 227 228 228 229 230 230 230 234 239 238 236 236 236 237 237 238 241 244 247 251 255 260 266 270 273 275 278 280 282 284 285 288 290 292 295 300 303 305 308
227 227 230 232 231 230 231 232 233 233 231 230 233 238 236 235 236 236 237 238 240 242 245 249 254 259 265 270 273 276 278 279 281 283 285 287 289 290 293 297 302 306 309 311
228 230 231 232 234 234 235 235 234 233 233 233 235 238 237 233 233 235 238 239 241 243 247 251 257 263 268 274 278 281 283 282 282 282 285 288 290 292 295 298 302 307 311 315
230 231 233 233 235 236 235 236 234 231 230 231 232 233 233 231 231 234 236 238 240 242 246 251 258 264 272 278 283 286 287 287 286 285 287 288 291 293 296 299 302 308 312 316
233 235 236 237 237 238 235 234 233 231 230 230 230 231 232 230 231 233 234 235 236 239 245 251 258 268 276 283 287 289 290 291 289 289 290 291 293 295 298 301 305 309 314 317
237 238 239 239 239 238 233 234 234 233 231 231 231 232 232 231 232 232 232 233 235 240 246 253 262 272 279 286 290 292 292 294 294 294 293 295 297 298 300 303 307 311 315 319
240 240 241 241 241 240 234 236 236 235 234 234 235 234 234 232 232 231 231 233 237 243 249 256 265 273 281 288 292 294 295 296 296 296 297 299 301 302 304 307 311 314 317 320
242 243 244 244 244 244 241 242 242 241 241 239 238 237 235 234 232 231 232 236 241 247 252 259 267 275 282 288 292 295 297 297 297 297 299 301 303 304 307 311 313 315 318 321
243 245 246 248 249 248 247 247 248 249 247 244 241 238 237 236 234 234 236 241 245 249 254 261 268 275 282 287 291 295 297 297 297 298 299 300 302 305 308 311 315 317 319 321
245 246 247 249 250 249 249 250 250 249 247 245 242 241 240 239 237 238 240 244 248 251 256 261 267 273 281 286 290 293 296 297 296 297 298 299 301 304 308 312 314 316 318 319
246 246 247 248 249 249 250 250 250 250 249 247 245 244 243 242 242 242 244 247 250 252 257 262 267 272 278 283 288 292 293 294 295 295 296 297 299 302 306 309 311 313 314 314
247 247 248 248 248 248 248 249 249 250 249 247 246 246 245 244 244 245 246 247 250 253 257 262 266 270 275 280 285 290 291 291 292 293 295 296 297 299 302 306 308 309 310 311
247 248 247 247 246 246 247 249 250 250 249 248 246 246 247 246 246 247 248 248 250 253 257 260 264 268 272 277 281 286 289 290 290 291 293 295 296 297 299 303 305 307 307 308
Height
5637 5647 5656 5666 5675 5683 5689 5694 5701 5707 5712 5720 5726 5733 5739 5744 5752 5758 5764 5769 5774 5778 5783 5787 5791 5794 5797 5799 5801 5803 5804 5806 5807 5807 5808 5808 5809 5809 5809 5808 5807 5806 5805 5804
5637 5646 5656 5662 5669 5675 5681 5688 5695 5700 5706 5714 5720 5726 5733 5738 5746 5752 5758 5763 5767 5772 5777 5781 5784 5787 5790 5793 5794 5796 5797 5798 5799 5800 5800 5800 5801 5801 5801 5800 5799 5798 5796 5795
5637 5647 5653 5659 5666 5672 5679 5686 5691 5695 5703 5709 5715 5720 5727 5733 5740 5746 5752 5756 5760 5765 5770 5774 5777 5781 5783 5785 5787 5788 5790 5791 5791 5792 5792 5792 5792 5792 5792 5791 5790 5789 5787 5785
5636 5643 5651 5657 5664 5670 5676 5681 5686 5691 5700 5704 5709 5714 5721 5727 5733 5740 5745 5750 5754 5759 5763 5767 5770 5773 5775 5777 5778 5780 5781 5782 5783 5784 5784 5784 5783 5783 5782 5781 5779 5778 5777 5775
5636 5642 5648 5655 5661 5666 5671 5677 5682 5688 5694 5697 5702 5708 5715 5721 5728 5734 5739 5743 5748 5752 5756 5759 5762 5764 5767 5769 5770 5771 5773 5773 5774 5775 5775 5774 5774 5773 5772 5770 5769 5768 5766 5764
5636 5641 5647 5652 5657 5662 5668 5674 5678 5683 5687 5693 5699 5704 5709 5716 5723 5728 5733 5737 5741 5745 5748 5751 5754 5756 5759 5760 5761 5763 5763 5764 5765 5765 5765 5764 5764 5763 5762 5760 5758 5757 5755 5753
5634 5640 5645 5650 5654 5659 5664 5670 5674 5678 5681 5688 5695 5698 5704 5710 5717 5722 5727 5731 5734 5738 5741 5743 5746 5748 5750 5751 5753 5753 5754 5755 5755 5755 5755 5754 5753 5752 5751 5750 5748 5746 5744 5742
5633 5638 5643 5647 5652 5656 5661 5666 5671 5675 5679 5685 5689 5693 5699 5704 5711 5716 5720 5724 5727 5730 5733 5736 5738 5740 5741 5742 5744 5744 5745 5745 5746 5745 5745 5744 5743 5742 5741 5739 5737 5735 5732 5730
5633 5637 5641 5645 5649 5653 5657 5661 5666 5671 5675 5679 5683 5688 5693 5699 5704 5709 5713 5717 5720 5723 5725 5727 5729 5731 5732 5734 5735 5735 5736 5736 5736 5736 5735 5734 5733 5732 5730 5728 5726 5723 5721 5717
5633 5636 5640 5643 5646 5650 5654 5657 5662 5667 5670 5675 5679 5683 5689 5694 5698 5702 5706 5709 5712 5715 5717 5719 5721 5722 5724 5725 5726 5727 5727 5727 5727 5726 5725 5724 5722 5721 5719 5717 5715 5712 5709 5705
5633 5636 5639 5641 5644 5647 5651 5655 5658 5662 5666 5671 5674 5679 5682 5687 5691 5694 5698 5701 5704 5707 5709 5711 5713 5715 5716 5717 5718 5718 5718 5718 5718 5717 5715 5714 5712 5710 5709 5706 5704 5700 5696 5692
5632 5635 5637 5640 5643 5645 5648 5651 5655 5659 5662 5666 5669 5674 5676 5680 5684 5687 5691 5694 5697 5700 5702 5704 5706 5707 5708 5709 5710 5710 5710 5709 5709 5708 5706 5705 5703 5701 5699 5696 5693 5689 5685 5679
5631 5634 5636 5638 5642 5643 5645 5648 5651 5655 5658 5662 5665 5669 5671 5674 5677 5681 5684 5687 5690 5693 5695 5697 5699 5700 5701 5702 5702 5702 5702 5701 5700 5699 5697 5696 5694 5692 5689 5687 5683 5679 5674 5668
5629 5632 5635 5637 5639 5641 5643 5645 5648 5651 5654 5657 5660 5662 5666 5669 5672 5676 5678 5681 5684 5687 5689 5691 5692 5694 5694 5695 5695 5694 5694 5693 5692 5690 5689 5687 5686 5683 5681 5678 5674 5670 5665 5658
5627 5629 5631 5633 5635 5637 5640 5642 5644 5647 5650 5653 5656 5657 5661 5665 5668 5671 5673 5676 5678 5681 5683 5685 5686 5687 5688 5688 5687 5687 5686 5685 5684 5682 5681 5680 5678 5675 5673 5670 5666 5661 5656 5650
5624 5626 5628 5630 5632 5634 5636 5638 5640 5643 5646 5649 5651 5654 5657 5660 5663 5666 5668 5671 5673 5676 5678 5679 5681 5681 5682 5681 5681 5680 5678 5677 5676 5675 5674 5672 5670 5668 5665 5662 5658 5654 5648 5643
5622 5624 5626 5627 5628 5630 5633 5635 5637 5640 5642 5644 5647 5651 5652 5656 5659 5661 5664 5666 5669 5671 5673 5674 5675 5676 5676 5675 5674 5673 5672 5671 5670 5668 5667 5665 5663 5661 5658 5655 5651 5647 5642 5637
5619 5621 5623 5624 5626 5628 5633 5632 5634 5636 5638 5640 5643 5646 5649 5652 5654 5657 5659 5662 5664 5666 5668 5669 5670 5670 5670 5669 5668 5667 5666 5665 5663 5662 5661 5659 5657 5654 5651 5648 5645 5641 5636 5631
5617 5618 5620 5622 5623 5625 5628 5629 5630 5633 5635 5637 5640 5642 5645 5647 5650 5653 5655 5657 5660 5661 5663 5664 5664 5664 5664 5664 5663 5662 5661 5659 5658 5656 5655 5653 5651 5648 5645 5642 5639 5635 5631 5626
5614 5615 5618 5619 5620 5623 5627 5627 5627 5631 5632 5634 5636 5638 5641 5643 5646 5649 5651 5653 5655 5656 5657 5658 5659 5659 5659 5658 5658 5657 5655 5654 5653 5651 5649 5647 5645 5643 5640 5637 5633 5630 5626 5621
5610 5612 5614 5615 5617 5620 5622 5623 5625 5628 5630 5631 5632 5634 5637 5639 5642 5644 5646 5648 5650 5651 5653 5653 5654 5654 5654 5653 5653 5652 5651 5649 5648 5646 5644 5642 5640 5638 5635 5632 5628 5625 5621 5617
5606 5608 5610 5612 5614 5619 5618 5619 5622 5624 5625 5626 5628 5630 5632 5634 5637 5639 5641 5643 5645 5646 5648 5649 5649 5649 5649 5648 5648 5647 5645 5644 5643 5641 5639 5637 5635 5633 5630 5627 5624 5620 5617 5613
5601 5604 5606 5608 5612 5612 5613 5615 5617 5618 5620 5622 5624 5626 5628 5630 5632 5634 5636 5638 5640 5641 5643 5643 5644 5644 5644 5643 5642 5641 5640 5639 5638 5636 5634 5632 5630 5628 5625 5622 5619 5616 5612 5609
5596 5598 5600 5602 5605 5606 5608 5610 5611 5613 5615 5617 5619 5621 5623 5625 5627 5629 5631 5633 5634 5636 5637 5638 5638 5639 5638 5638 5637 5636 5635 5634 5632 5631 5629 5627 5625 5623 5620 5617 5614 5611 5608 5605
5589 5591 5594 5596 5598 5600 5602 5604 5606 5608 5609 5611 5613 5615 5617 5619 5621 5623 5625 5627 5628 5630 5631 5632 5632 5633 5633 5632 5632 5631 5629 5628 5627 5625 5624 5622 5620 5617 5615 5612 5609 5606 5603 5600
5581 5584 5587 5589 5591 5594 5597 5598 5600 5602 5604 5606 5607 5609 5611 5613 5615 5617 5619 5620 5622 5623 5624 5625 5626 5626 5626 5626 5625 5625 5623 5622 5621 5619 5618 5616 5614 5612 5609 5607 5604 5601 5598 5594